QPF
0.00 0.00 0.00 0.01 0.02 0.03 0.02 0.01 0.01 0.01 0.00 0.00 0.00 0.02 0.04 0.03 0.02 0.02 0.01 0.01 0.02 0.03 0.05 0.06 0.06 0.05 0.05 0.06 0.07 0.06 0.04 0.03 0.03 0.03 0.03 0.02 0.01 0.01 0.02 0.03 0.03 0.03 0.04 0.05
0.00 0.00 0.00 0.01 0.01 0.02 0.01 0.00 0.00 0.01 0.00 0.00 0.01 0.02 0.04 0.03 0.02 0.04 0.02 0.02 0.03 0.04 0.04 0.05 0.06 0.07 0.07 0.06 0.07 0.05 0.04 0.04 0.04 0.03 0.03 0.02 0.01 0.02 0.03 0.04 0.04 0.04 0.03 0.04
0.00 0.00 0.00 0.00 0.00 0.00 0.00 0.00 0.00 0.00 0.00 0.01 0.03 0.04 0.04 0.03 0.02 0.02 0.03 0.02 0.02 0.03 0.06 0.07 0.08 0.09 0.07 0.07 0.08 0.06 0.05 0.04 0.03 0.03 0.03 0.03 0.02 0.03 0.04 0.04 0.04 0.04 0.04 0.05
0.00 0.00 0.00 0.01 0.00 0.00 0.00 0.00 0.00 0.00 0.00 0.01 0.02 0.03 0.03 0.04 0.05 0.03 0.03 0.03 0.04 0.04 0.06 0.07 0.07 0.06 0.06 0.08 0.08 0.07 0.06 0.05 0.03 0.02 0.02 0.02 0.02 0.02 0.02 0.04 0.04 0.05 0.07 0.09
0.00 0.00 0.00 0.00 0.00 0.00 0.00 0.00 0.00 0.01 0.01 0.01 0.02 0.02 0.02 0.04 0.05 0.04 0.05 0.06 0.05 0.05 0.05 0.05 0.04 0.05 0.06 0.07 0.07 0.05 0.05 0.04 0.03 0.02 0.02 0.02 0.02 0.02 0.02 0.03 0.04 0.04 0.05 0.08
0.00 0.00 0.00 0.00 0.01 0.00 0.00 0.01 0.01 0.01 0.01 0.01 0.02 0.04 0.04 0.05 0.03 0.04 0.04 0.05 0.05 0.05 0.06 0.06 0.06 0.07 0.07 0.06 0.06 0.05 0.05 0.04 0.03 0.03 0.02 0.02 0.02 0.02 0.02 0.02 0.02 0.03 0.03 0.04
0.00 0.00 0.00 0.01 0.01 0.00 0.01 0.01 0.01 0.01 0.01 0.02 0.02 0.05 0.04 0.03 0.03 0.04 0.03 0.03 0.04 0.05 0.07 0.08 0.07 0.07 0.06 0.06 0.05 0.05 0.05 0.04 0.04 0.03 0.02 0.01 0.01 0.02 0.02 0.02 0.03 0.03 0.03 0.02
0.00 0.00 0.00 0.00 0.01 0.00 0.00 0.00 0.01 0.01 0.02 0.02 0.03 0.05 0.03 0.03 0.03 0.04 0.04 0.04 0.04 0.04 0.05 0.06 0.08 0.07 0.06 0.05 0.05 0.05 0.05 0.05 0.04 0.03 0.02 0.02 0.02 0.02 0.03 0.03 0.03 0.03 0.02 0.01
0.00 0.00 0.00 0.01 0.01 0.00 0.00 0.00 0.01 0.02 0.02 0.02 0.03 0.05 0.04 0.03 0.03 0.04 0.04 0.03 0.03 0.03 0.04 0.06 0.10 0.10 0.08 0.06 0.05 0.05 0.05 0.05 0.04 0.03 0.02 0.03 0.04 0.05 0.07 0.06 0.04 0.02 0.02 0.01
0.01 0.01 0.01 0.01 0.02 0.01 0.01 0.01 0.01 0.01 0.02 0.02 0.03 0.03 0.03 0.03 0.02 0.02 0.03 0.03 0.03 0.03 0.04 0.06 0.11 0.08 0.07 0.06 0.05 0.05 0.06 0.07 0.06 0.05 0.05 0.07 0.07 0.07 0.06 0.05 0.03 0.02 0.01 0.01
0.01 0.01 0.01 0.01 0.01 0.01 0.01 0.01 0.02 0.03 0.04 0.03 0.03 0.03 0.02 0.02 0.02 0.03 0.03 0.03 0.03 0.03 0.06 0.11 0.11 0.06 0.07 0.06 0.06 0.05 0.06 0.08 0.06 0.04 0.04 0.03 0.03 0.03 0.03 0.02 0.02 0.01 0.01 0.01
0.01 0.00 0.00 0.01 0.01 0.01 0.01 0.02 0.03 0.03 0.05 0.05 0.04 0.03 0.02 0.02 0.02 0.02 0.03 0.03 0.03 0.03 0.03 0.04 0.04 0.04 0.06 0.06 0.04 0.04 0.05 0.05 0.05 0.04 0.03 0.02 0.01 0.01 0.01 0.01 0.01 0.01 0.01 0.01
0.00 0.00 0.00 0.00 0.00 0.01 0.01 0.02 0.03 0.04 0.04 0.04 0.05 0.04 0.03 0.03 0.02 0.03 0.03 0.03 0.02 0.02 0.02 0.02 0.03 0.03 0.05 0.06 0.05 0.04 0.04 0.05 0.05 0.04 0.03 0.03 0.02 0.01 0.01 0.01 0.01 0.01 0.02 0.02
0.00 0.00 0.00 0.00 0.01 0.01 0.01 0.01 0.01 0.02 0.04 0.05 0.05 0.05 0.04 0.03 0.02 0.02 0.02 0.02 0.02 0.02 0.03 0.04 0.04 0.04 0.05 0.08 0.08 0.06 0.06 0.05 0.05 0.04 0.03 0.03 0.03 0.02 0.02 0.02 0.01 0.01 0.01 0.01
0.01 0.01 0.00 0.01 0.01 0.01 0.01 0.01 0.01 0.01 0.01 0.03 0.06 0.07 0.07 0.06 0.04 0.02 0.02 0.02 0.02 0.02 0.03 0.05 0.05 0.06 0.06 0.06 0.09 0.09 0.08 0.07 0.06 0.06 0.05 0.04 0.04 0.03 0.03 0.02 0.02 0.01 0.01 0.01
0.01 0.01 0.01 0.01 0.01 0.01 0.01 0.01 0.01 0.01 0.01 0.01 0.02 0.03 0.05 0.07 0.06 0.04 0.03 0.02 0.02 0.02 0.03 0.03 0.03 0.04 0.06 0.05 0.06 0.09 0.10 0.11 0.10 0.08 0.07 0.06 0.05 0.04 0.03 0.02 0.02 0.02 0.02 0.01
0.01 0.01 0.01 0.01 0.02 0.01 0.02 0.02 0.03 0.03 0.01 0.01 0.01 0.01 0.02 0.04 0.04 0.04 0.03 0.02 0.03 0.04 0.05 0.04 0.04 0.04 0.05 0.06 0.06 0.08 0.10 0.11 0.10 0.07 0.05 0.05 0.05 0.04 0.03 0.02 0.02 0.01 0.01 0.02
0.01 0.01 0.01 0.02 0.03 0.03 0.02 0.02 0.02 0.02 0.02 0.01 0.01 0.02 0.01 0.01 0.02 0.02 0.01 0.02 0.03 0.05 0.05 0.05 0.05 0.04 0.04 0.06 0.06 0.07 0.08 0.08 0.07 0.06 0.06 0.06 0.06 0.05 0.04 0.02 0.02 0.02 0.02 0.02
0.01 0.01 0.00 0.01 0.02 0.03 0.03 0.02 0.02 0.02 0.02 0.01 0.02 0.02 0.01 0.00 0.00 0.00 0.01 0.02 0.04 0.03 0.03 0.03 0.03 0.03 0.03 0.03 0.03 0.04 0.05 0.05 0.05 0.05 0.06 0.07 0.07 0.07 0.06 0.04 0.04 0.04 0.03 0.03
0.01 0.01 0.01 0.01 0.02 0.02 0.02 0.02 0.03 0.03 0.02 0.02 0.01 0.01 0.01 0.01 0.01 0.01 0.01 0.01 0.01 0.01 0.01 0.02 0.02 0.02 0.02 0.03 0.03 0.03 0.03 0.04 0.04 0.04 0.04 0.04 0.04 0.05 0.05 0.04 0.03 0.03 0.03 0.03
0.01 0.02 0.02 0.03 0.03 0.02 0.02 0.02 0.03 0.03 0.02 0.01 0.01 0.01 0.01 0.01 0.02 0.01 0.01 0.01 0.01 0.01 0.01 0.02 0.02 0.03 0.03 0.03 0.03 0.02 0.03 0.03 0.03 0.03 0.03 0.02 0.02 0.02 0.02 0.02 0.02 0.01 0.02 0.02
0.02 0.02 0.02 0.02 0.02 0.02 0.03 0.02 0.02 0.02 0.01 0.01 0.01 0.01 0.01 0.01 0.02 0.01 0.01 0.01 0.01 0.01 0.01 0.01 0.01 0.01 0.01 0.01 0.02 0.02 0.02 0.02 0.02 0.02 0.02 0.02 0.02 0.02 0.02 0.02 0.02 0.01 0.01 0.02
0.03 0.04 0.04 0.04 0.03 0.03 0.03 0.02 0.01 0.01 0.01 0.01 0.01 0.01 0.00 0.01 0.00 0.01 0.01 0.01 0.01 0.01 0.01 0.01 0.01 0.02 0.02 0.02 0.01 0.01 0.01 0.01 0.01 0.01 0.01 0.01 0.01 0.01 0.01 0.01 0.01 0.01 0.02 0.02
0.02 0.02 0.03 0.03 0.04 0.04 0.03 0.02 0.01 0.01 0.01 0.01 0.01 0.01 0.01 0.00 0.01 0.00 0.01 0.01 0.01 0.01 0.01 0.01 0.01 0.01 0.02 0.02 0.01 0.01 0.01 0.01 0.01 0.01 0.01 0.01 0.00 0.00 0.00 0.01 0.01 0.01 0.02 0.02
0.01 0.01 0.01 0.01 0.02 0.02 0.02 0.01 0.01 0.00 0.01 0.01 0.01 0.02 0.01 0.01 0.01 0.01 0.01 0.01 0.01 0.00 0.00 0.00 0.00 0.00 0.00 0.01 0.01 0.01 0.01 0.01 0.01 0.01 0.01 0.01 0.01 0.01 0.01 0.01 0.01 0.01 0.01 0.01
0.02 0.01 0.01 0.00 0.00 0.01 0.01 0.00 0.00 0.01 0.01 0.01 0.01 0.01 0.01 0.01 0.01 0.01 0.01 0.01 0.01 0.00 0.00 0.00 0.00 0.00 0.00 0.00 0.00 0.00 0.00 0.00 0.00 0.00 0.00 0.01 0.01 0.01 0.01 0.01 0.00 0.01 0.01 0.01
0.03 0.02 0.01 0.01 0.01 0.01 0.01 0.01 0.01 0.01 0.01 0.01 0.01 0.01 0.01 0.01 0.01 0.00 0.00 0.01 0.01 0.00 0.00 0.01 0.01 0.00 0.00 0.00 0.00 0.01 0.01 0.01 0.01 0.01 0.01 0.01 0.01 0.00 0.00 0.00 0.01 0.01 0.01 0.01
MSLP
1014.14 1014.65 1015.13 1015.56 1015.90 1016.10 1016.13 1015.97 1015.62 1015.11 1014.47 1013.77 1013.08 1012.47 1011.99 1011.68 1011.53 1011.53 1011.65 1011.84 1012.05 1012.25 1012.41 1012.54 1012.64 1012.73 1012.85 1013.00 1013.20 1013.45 1013.73 1014.02 1014.30 1014.54 1014.72 1014.83 1014.88 1014.86 1014.79 1014.69 1014.58 1014.46 1014.35 1014.27
1014.40 1014.85 1015.22 1015.49 1015.64 1015.65 1015.52 1015.25 1014.84 1014.33 1013.76 1013.17 1012.62 1012.14 1011.78 1011.53 1011.42 1011.41 1011.47 1011.60 1011.74 1011.89 1012.04 1012.19 1012.35 1012.54 1012.76 1013.02 1013.32 1013.65 1013.98 1014.29 1014.58 1014.81 1014.98 1015.09 1015.13 1015.13 1015.09 1015.03 1014.95 1014.87 1014.79 1014.71
1014.80 1015.16 1015.39 1015.50 1015.47 1015.31 1015.03 1014.63 1014.16 1013.64 1013.10 1012.58 1012.12 1011.73 1011.44 1011.25 1011.14 1011.11 1011.14 1011.21 1011.31 1011.44 1011.59 1011.78 1012.01 1012.28 1012.60 1012.96 1013.34 1013.73 1014.10 1014.43 1014.71 1014.93 1015.09 1015.18 1015.24 1015.26 1015.25 1015.23 1015.20 1015.16 1015.10 1015.04
1015.26 1015.49 1015.57 1015.51 1015.32 1014.99 1014.57 1014.07 1013.52 1012.97 1012.44 1011.96 1011.56 1011.23 1010.99 1010.82 1010.72 1010.68 1010.68 1010.73 1010.81 1010.94 1011.12 1011.36 1011.66 1012.02 1012.43 1012.86 1013.31 1013.74 1014.13 1014.46 1014.73 1014.93 1015.06 1015.15 1015.21 1015.24 1015.27 1015.29 1015.30 1015.30 1015.27 1015.22
1015.66 1015.73 1015.65 1015.43 1015.08 1014.62 1014.08 1013.49 1012.89 1012.31 1011.78 1011.33 1010.95 1010.66 1010.45 1010.30 1010.22 1010.18 1010.19 1010.24 1010.34 1010.50 1010.73 1011.03 1011.40 1011.83 1012.31 1012.80 1013.29 1013.73 1014.12 1014.44 1014.68 1014.84 1014.96 1015.03 1015.08 1015.13 1015.18 1015.23 1015.27 1015.30 1015.29 1015.24
1015.89 1015.78 1015.55 1015.18 1014.70 1014.13 1013.51 1012.86 1012.24 1011.65 1011.13 1010.70 1010.35 1010.09 1009.91 1009.79 1009.73 1009.71 1009.75 1009.83 1009.97 1010.18 1010.46 1010.83 1011.26 1011.75 1012.27 1012.80 1013.30 1013.74 1014.11 1014.40 1014.60 1014.73 1014.82 1014.87 1014.91 1014.96 1015.02 1015.08 1015.14 1015.17 1015.17 1015.11
1015.86 1015.59 1015.20 1014.72 1014.15 1013.53 1012.87 1012.21 1011.59 1011.03 1010.54 1010.14 1009.84 1009.61 1009.47 1009.39 1009.36 1009.38 1009.45 1009.58 1009.77 1010.03 1010.37 1010.78 1011.26 1011.78 1012.33 1012.86 1013.34 1013.77 1014.11 1014.36 1014.52 1014.62 1014.68 1014.70 1014.73 1014.76 1014.81 1014.87 1014.91 1014.93 1014.91 1014.84
1015.54 1015.12 1014.62 1014.07 1013.46 1012.83 1012.19 1011.58 1011.01 1010.50 1010.07 1009.73 1009.48 1009.31 1009.21 1009.17 1009.18 1009.24 1009.36 1009.53 1009.76 1010.07 1010.44 1010.88 1011.37 1011.90 1012.43 1012.94 1013.40 1013.79 1014.09 1014.31 1014.45 1014.52 1014.55 1014.55 1014.56 1014.57 1014.59 1014.61 1014.63 1014.61 1014.55 1014.44
1014.94 1014.42 1013.86 1013.28 1012.69 1012.11 1011.55 1011.02 1010.54 1010.13 1009.79 1009.52 1009.34 1009.22 1009.17 1009.17 1009.23 1009.33 1009.48 1009.68 1009.93 1010.25 1010.63 1011.06 1011.53 1012.03 1012.53 1013.00 1013.41 1013.77 1014.04 1014.23 1014.35 1014.40 1014.42 1014.41 1014.39 1014.38 1014.36 1014.33 1014.29 1014.23 1014.11 1013.96
1014.15 1013.57 1013.01 1012.46 1011.93 1011.45 1010.99 1010.59 1010.23 1009.93 1009.70 1009.53 1009.41 1009.36 1009.35 1009.40 1009.48 1009.61 1009.77 1009.98 1010.23 1010.54 1010.89 1011.28 1011.70 1012.14 1012.57 1012.98 1013.35 1013.66 1013.91 1014.09 1014.20 1014.26 1014.27 1014.26 1014.22 1014.17 1014.11 1014.03 1013.92 1013.79 1013.61 1013.41
1013.28 1012.70 1012.17 1011.69 1011.27 1010.91 1010.59 1010.32 1010.10 1009.93 1009.79 1009.70 1009.66 1009.66 1009.69 1009.76 1009.86 1010.00 1010.16 1010.35 1010.58 1010.84 1011.13 1011.46 1011.80 1012.16 1012.52 1012.86 1013.18 1013.46 1013.68 1013.86 1013.98 1014.05 1014.08 1014.06 1014.02 1013.94 1013.83 1013.69 1013.52 1013.31 1013.07 1012.81
1012.45 1011.91 1011.46 1011.08 1010.78 1010.55 1010.37 1010.23 1010.12 1010.05 1010.01 1009.99 1009.99 1010.03 1010.09 1010.17 1010.27 1010.40 1010.54 1010.71 1010.89 1011.09 1011.32 1011.56 1011.82 1012.09 1012.37 1012.65 1012.91 1013.16 1013.38 1013.55 1013.69 1013.78 1013.82 1013.82 1013.76 1013.65 1013.50 1013.30 1013.06 1012.78 1012.48 1012.16
1011.79 1011.32 1010.95 1010.68 1010.49 1010.38 1010.31 1010.27 1010.26 1010.26 1010.26 1010.28 1010.32 1010.36 1010.43 1010.51 1010.61 1010.72 1010.84 1010.97 1011.11 1011.25 1011.41 1011.57 1011.75 1011.94 1012.15 1012.36 1012.58 1012.80 1013.01 1013.19 1013.35 1013.46 1013.51 1013.50 1013.43 1013.30 1013.10 1012.84 1012.54 1012.20 1011.84 1011.47
1011.35 1010.96 1010.68 1010.51 1010.41 1010.38 1010.39 1010.42 1010.45 1010.48 1010.50 1010.53 1010.55 1010.59 1010.65 1010.72 1010.80 1010.90 1011.00 1011.10 1011.20 1011.30 1011.40 1011.51 1011.62 1011.75 1011.89 1012.06 1012.24 1012.44 1012.63 1012.82 1012.97 1013.09 1013.14 1013.13 1013.04 1012.87 1012.62 1012.31 1011.94 1011.54 1011.13 1010.72
1011.17 1010.86 1010.66 1010.56 1010.54 1010.56 1010.60 1010.64 1010.67 1010.69 1010.69 1010.68 1010.68 1010.69 1010.72 1010.77 1010.84 1010.93 1011.02 1011.11 1011.19 1011.27 1011.34 1011.40 1011.47 1011.55 1011.65 1011.78 1011.93 1012.10 1012.27 1012.45 1012.59 1012.70 1012.73 1012.70 1012.57 1012.36 1012.06 1011.69 1011.27 1010.82 1010.35 1009.90
1011.23 1011.00 1010.87 1010.82 1010.83 1010.86 1010.90 1010.91 1010.91 1010.87 1010.82 1010.77 1010.72 1010.69 1010.68 1010.71 1010.77 1010.85 1010.94 1011.04 1011.12 1011.19 1011.25 1011.30 1011.34 1011.39 1011.46 1011.55 1011.67 1011.80 1011.95 1012.09 1012.21 1012.28 1012.28 1012.20 1012.03 1011.77 1011.41 1010.99 1010.52 1010.02 1009.51 1009.02
1011.49 1011.32 1011.23 1011.22 1011.23 1011.26 1011.26 1011.23 1011.16 1011.06 1010.94 1010.82 1010.72 1010.64 1010.60 1010.61 1010.66 1010.74 1010.84 1010.95 1011.04 1011.12 1011.18 1011.22 1011.25 1011.28 1011.32 1011.38 1011.46 1011.55 1011.65 1011.75 1011.81 1011.83 1011.78 1011.65 1011.42 1011.10 1010.69 1010.22 1009.70 1009.16 1008.63 1008.11
1011.85 1011.74 1011.70 1011.70 1011.71 1011.70 1011.66 1011.57 1011.44 1011.27 1011.08 1010.90 1010.74 1010.62 1010.56 1010.55 1010.60 1010.68 1010.79 1010.90 1011.00 1011.09 1011.14 1011.18 1011.19 1011.20 1011.21 1011.22 1011.26 1011.30 1011.34 1011.38 1011.38 1011.34 1011.22 1011.02 1010.74 1010.37 1009.92 1009.41 1008.86 1008.30 1007.74 1007.22
1012.27 1012.20 1012.19 1012.19 1012.19 1012.15 1012.06 1011.92 1011.73 1011.50 1011.26 1011.03 1010.84 1010.69 1010.61 1010.59 1010.63 1010.71 1010.82 1010.93 1011.03 1011.11 1011.15 1011.17 1011.15 1011.12 1011.09 1011.05 1011.02 1011.00 1010.98 1010.94 1010.88 1010.76 1010.59 1010.34 1010.01 1009.60 1009.12 1008.59 1008.04 1007.47 1006.92 1006.40
1012.65 1012.62 1012.62 1012.62 1012.60 1012.53 1012.41 1012.23 1012.00 1011.73 1011.46 1011.21 1011.00 1010.84 1010.75 1010.73 1010.76 1010.83 1010.93 1011.03 1011.11 1011.16 1011.17 1011.14 1011.09 1011.01 1010.91 1010.81 1010.71 1010.62 1010.53 1010.42 1010.29 1010.12 1009.90 1009.61 1009.25 1008.83 1008.35 1007.83 1007.29 1006.75 1006.22 1005.73
1012.96 1012.94 1012.94 1012.93 1012.89 1012.79 1012.64 1012.43 1012.18 1011.91 1011.63 1011.38 1011.17 1011.02 1010.94 1010.91 1010.94 1011.00 1011.08 1011.14 1011.19 1011.19 1011.15 1011.07 1010.95 1010.81 1010.64 1010.47 1010.30 1010.14 1009.98 1009.82 1009.64 1009.43 1009.17 1008.87 1008.52 1008.11 1007.66 1007.18 1006.68 1006.18 1005.70 1005.24
1013.16 1013.14 1013.12 1013.08 1013.00 1012.88 1012.70 1012.48 1012.23 1011.96 1011.70 1011.46 1011.28 1011.15 1011.08 1011.06 1011.09 1011.13 1011.18 1011.21 1011.21 1011.16 1011.06 1010.91 1010.72 1010.50 1010.27 1010.03 1009.80 1009.58 1009.37 1009.17 1008.95 1008.73 1008.48 1008.19 1007.86 1007.49 1007.10 1006.68 1006.24 1005.81 1005.39 1004.98
1013.25 1013.19 1013.13 1013.05 1012.93 1012.77 1012.57 1012.34 1012.08 1011.83 1011.59 1011.39 1011.24 1011.14 1011.09 1011.09 1011.11 1011.15 1011.17 1011.16 1011.10 1011.00 1010.84 1010.62 1010.37 1010.09 1009.80 1009.51 1009.23 1008.97 1008.74 1008.51 1008.30 1008.09 1007.86 1007.61 1007.34 1007.03 1006.71 1006.36 1006.00 1005.64 1005.28 1004.93
1013.23 1013.12 1013.00 1012.86 1012.69 1012.48 1012.25 1012.00 1011.75 1011.51 1011.30 1011.13 1011.01 1010.95 1010.92 1010.93 1010.96 1010.98 1010.98 1010.94 1010.84 1010.69 1010.48 1010.22 1009.91 1009.59 1009.26 1008.95 1008.65 1008.38 1008.14 1007.93 1007.74 1007.56 1007.38 1007.19 1006.98 1006.75 1006.50 1006.23 1005.95 1005.65 1005.34 1005.03
1013.12 1012.95 1012.76 1012.55 1012.31 1012.05 1011.78 1011.51 1011.26 1011.03 1010.84 1010.70 1010.61 1010.57 1010.56 1010.58 1010.61 1010.62 1010.60 1010.54 1010.41 1010.23 1009.99 1009.70 1009.38 1009.05 1008.72 1008.40 1008.11 1007.86 1007.65 1007.47 1007.32 1007.19 1007.07 1006.95 1006.81 1006.65 1006.47 1006.27 1006.04 1005.79 1005.52 1005.22
1012.94 1012.70 1012.45 1012.17 1011.87 1011.56 1011.25 1010.96 1010.69 1010.46 1010.28 1010.15 1010.08 1010.05 1010.06 1010.08 1010.11 1010.11 1010.08 1009.99 1009.86 1009.66 1009.41 1009.13 1008.82 1008.50 1008.19 1007.90 1007.66 1007.45 1007.29 1007.17 1007.07 1007.00 1006.95 1006.88 1006.81 1006.71 1006.58 1006.42 1006.22 1005.99 1005.72 1005.42
1012.69 1012.40 1012.09 1011.76 1011.42 1011.07 1010.74 1010.42 1010.15 1009.91 1009.74 1009.61 1009.54 1009.51 1009.51 1009.52 1009.53 1009.52 1009.47 1009.38 1009.23 1009.04 1008.80 1008.54 1008.26 1007.98 1007.72 1007.50 1007.31 1007.17 1007.07 1007.01 1006.98 1006.97 1006.97 1006.96 1006.93 1006.86 1006.76 1006.61 1006.42 1006.17 1005.88 1005.53
Thickness
5762 5770 5771 5770 5770 5767 5762 5757 5750 5756 5759 5773 5780 5783 5787 5790 5791 5791 5790 5789 5789 5789 5787 5787 5786 5785 5783 5781 5779 5776 5772 5768 5766 5764 5762 5759 5757 5755 5754 5752 5750 5747 5745 5743
5756 5764 5767 5764 5767 5766 5764 5761 5758 5759 5761 5778 5780 5782 5783 5785 5785 5784 5784 5785 5786 5785 5783 5782 5781 5780 5779 5777 5775 5772 5768 5764 5762 5760 5758 5756 5754 5752 5750 5747 5745 5743 5741 5739
5737 5750 5757 5745 5757 5760 5759 5762 5760 5755 5764 5772 5772 5774 5776 5778 5779 5779 5779 5780 5780 5780 5779 5778 5778 5777 5774 5772 5769 5766 5763 5760 5757 5755 5753 5751 5750 5748 5745 5743 5741 5738 5737 5735
5723 5735 5724 5745 5766 5765 5759 5760 5762 5763 5766 5769 5771 5772 5774 5775 5774 5774 5775 5775 5775 5775 5775 5775 5774 5772 5770 5767 5763 5760 5757 5755 5753 5751 5749 5747 5745 5743 5741 5739 5736 5734 5732 5730
5710 5714 5724 5744 5758 5757 5751 5750 5760 5759 5762 5764 5767 5766 5766 5770 5770 5770 5771 5771 5770 5770 5770 5769 5767 5764 5761 5759 5756 5754 5751 5750 5749 5747 5745 5743 5740 5738 5736 5734 5731 5729 5728 5725
5706 5709 5708 5734 5756 5763 5754 5739 5758 5758 5756 5757 5757 5746 5753 5764 5764 5764 5765 5765 5765 5764 5763 5761 5759 5757 5754 5751 5749 5747 5746 5745 5745 5743 5741 5739 5736 5734 5732 5729 5726 5724 5722 5720
5702 5704 5715 5739 5750 5754 5730 5733 5753 5754 5753 5752 5749 5748 5751 5755 5756 5756 5756 5757 5757 5755 5753 5752 5751 5749 5746 5744 5742 5743 5742 5740 5739 5738 5736 5734 5732 5729 5726 5724 5721 5718 5715 5714
5694 5697 5708 5738 5741 5734 5734 5745 5748 5748 5748 5746 5744 5745 5746 5746 5746 5747 5747 5747 5746 5744 5743 5743 5743 5740 5736 5735 5736 5736 5735 5733 5732 5731 5730 5729 5725 5722 5719 5717 5713 5710 5708 5706
5701 5706 5722 5730 5733 5737 5739 5738 5741 5740 5741 5740 5737 5736 5736 5736 5736 5737 5737 5737 5736 5735 5734 5734 5733 5731 5728 5729 5729 5729 5727 5725 5724 5723 5722 5720 5717 5713 5711 5708 5705 5702 5700 5698
5700 5709 5718 5723 5729 5732 5735 5735 5736 5736 5735 5733 5729 5728 5727 5727 5727 5727 5726 5726 5725 5724 5723 5723 5723 5722 5721 5721 5721 5720 5717 5715 5714 5713 5711 5710 5709 5707 5703 5700 5698 5695 5693 5691
5694 5704 5711 5717 5721 5724 5727 5729 5729 5728 5727 5725 5723 5721 5720 5719 5719 5718 5717 5716 5715 5713 5712 5712 5712 5712 5712 5712 5711 5710 5708 5706 5705 5704 5702 5700 5699 5696 5695 5694 5693 5690 5688 5686
5691 5701 5702 5706 5714 5718 5718 5718 5718 5718 5716 5716 5715 5714 5713 5711 5711 5710 5707 5706 5705 5704 5702 5702 5702 5702 5703 5703 5703 5701 5698 5697 5696 5694 5692 5690 5689 5688 5687 5686 5685 5683 5682 5679
5697 5702 5701 5705 5708 5710 5709 5709 5710 5709 5708 5707 5707 5706 5704 5703 5703 5702 5700 5698 5695 5694 5693 5692 5692 5693 5694 5694 5693 5692 5690 5689 5689 5687 5685 5682 5680 5679 5678 5678 5677 5675 5673 5671
5694 5695 5693 5696 5697 5701 5702 5702 5702 5701 5700 5699 5698 5697 5695 5694 5693 5692 5690 5690 5688 5686 5684 5683 5684 5684 5684 5684 5683 5682 5681 5681 5680 5677 5676 5674 5672 5670 5669 5668 5666 5666 5664 5662
5687 5688 5688 5689 5690 5692 5693 5693 5691 5690 5689 5689 5688 5687 5686 5684 5683 5682 5681 5680 5678 5677 5676 5675 5674 5674 5674 5673 5672 5672 5671 5671 5670 5668 5666 5664 5662 5661 5659 5658 5657 5656 5655 5654
5677 5679 5680 5680 5681 5682 5683 5683 5681 5680 5680 5679 5678 5677 5676 5675 5673 5671 5670 5670 5667 5665 5665 5664 5664 5663 5663 5662 5662 5661 5660 5660 5659 5657 5655 5653 5652 5650 5649 5647 5646 5645 5645 5643
5668 5667 5668 5669 5671 5672 5673 5674 5673 5673 5672 5671 5670 5669 5667 5665 5663 5661 5660 5659 5658 5656 5655 5655 5654 5654 5653 5652 5651 5650 5649 5648 5647 5646 5644 5642 5641 5639 5638 5636 5634 5633 5632 5631
5665 5666 5666 5665 5665 5664 5665 5666 5666 5665 5664 5664 5662 5659 5657 5656 5654 5653 5651 5650 5648 5647 5646 5646 5645 5644 5643 5642 5641 5640 5638 5636 5635 5633 5632 5631 5630 5628 5626 5624 5623 5621 5620 5618
5658 5659 5659 5659 5659 5658 5658 5658 5658 5657 5657 5656 5653 5651 5649 5647 5646 5644 5643 5641 5639 5637 5637 5637 5636 5635 5633 5632 5631 5629 5627 5625 5624 5622 5622 5620 5619 5617 5615 5613 5611 5610 5608 5606
5651 5652 5652 5652 5652 5651 5650 5651 5650 5649 5649 5648 5645 5643 5640 5639 5638 5637 5635 5632 5630 5629 5629 5628 5627 5626 5624 5623 5622 5619 5618 5616 5614 5612 5611 5609 5608 5606 5604 5602 5601 5599 5597 5594
5642 5643 5643 5643 5643 5643 5643 5643 5642 5641 5641 5640 5637 5635 5633 5631 5630 5628 5625 5623 5623 5622 5621 5620 5618 5617 5616 5615 5613 5610 5609 5607 5605 5603 5601 5599 5597 5594 5592 5591 5589 5587 5585 5584
5633 5634 5634 5634 5634 5634 5635 5635 5635 5634 5632 5631 5629 5628 5626 5623 5621 5619 5617 5616 5616 5615 5613 5612 5610 5609 5607 5606 5604 5602 5600 5598 5596 5593 5591 5588 5586 5584 5581 5579 5578 5576 5574 5572
5625 5625 5626 5626 5626 5626 5626 5627 5627 5626 5624 5623 5622 5620 5618 5616 5614 5612 5610 5609 5608 5607 5605 5603 5602 5601 5599 5597 5595 5593 5591 5589 5587 5584 5582 5579 5577 5574 5572 5570 5568 5566 5563 5562
5616 5617 5617 5618 5618 5618 5617 5618 5618 5618 5617 5616 5615 5613 5611 5608 5606 5605 5603 5602 5601 5599 5597 5595 5594 5592 5590 5588 5586 5584 5581 5579 5577 5575 5572 5570 5567 5565 5563 5560 5558 5555 5553 5551
5608 5608 5609 5609 5609 5609 5610 5610 5609 5609 5609 5608 5606 5605 5603 5602 5600 5598 5596 5595 5593 5591 5589 5588 5586 5584 5581 5579 5577 5574 5572 5570 5568 5566 5563 5560 5558 5556 5553 5551 5548 5545 5543 5540
5601 5601 5601 5602 5603 5603 5603 5602 5601 5601 5600 5599 5597 5596 5595 5594 5592 5590 5588 5586 5584 5582 5580 5578 5576 5575 5572 5570 5568 5565 5563 5561 5559 5556 5554 5551 5548 5546 5544 5541 5539 5536 5534 5532
5595 5595 5595 5595 5597 5597 5598 5597 5596 5595 5594 5592 5590 5589 5587 5586 5584 5582 5580 5577 5575 5574 5572 5570 5568 5566 5564 5561 5559 5556 5554 5552 5550 5547 5545 5542 5539 5536 5534 5532 5529 5527 5525 5523